TOURFACTS.DK  
Stats and Facts from Tour de France.

Tour de France 2018 starts in 169 days
  Riders   Stages   Teams   Summits   Yearly  


 
Search by year

 2017 - St.21:
 14824 starters.
  5132 different riders.
  635 teams.
  2232 stages.
  454 restdays.
  439589.60 km.
  5653 abandonnees.


Top 3
GC
Christopher Froome86:20:55
Rigoberto Uran86:21:49
Romain Bardet86:23:15
Climb
Warren Barguil169 pt.
Primoz Roglic80 pt.
Thomas De Gendt64 pt.
Sprint
Michael Matthews359 pt.
André Greipel234 pt.
Edvald Boasson Hagen220 pt.
Youth
Simon Yates86:27:09
Louis Meintjes86:29:15
Emanuel Buchmann86:54:16
Facts from Tour de France 2010
  |   Stages.  |   Stage winners.  |   Days in yellow  |   Average speed.  |   Route.  |   Teams.  |   All riders.  |   Rookies.  |   Withdrawls.  |  

  |   GC.  |   Polka  |   Green  |   White  |   Summits. (In tour)  |   Summits. (Points)  |   Miscellaneous.  |  

Stage 15 on 19 - 07 - 2010
         Owning:    Andy Schleck    
Pick a stage:  Pro 1 2 3 4 5 6 7 8 9 10 11 12 13 14 15 16 17 18 19 20
  PamiersBagnères-de-Luchon | Dist: 187.00 km.
Cat: 4Côte de Carla BayleFRAPierrick Fédrigo
3 points
 
Cat: 2Col de Portet-d'AspetFRAThomas Voeckler
10 points
 
Cat: 2Col des AresFRAThomas Voeckler
10 points
 
Cat: HPort de BalèsFRAThomas Voeckler
40 points
 

Average speed for all riders in stage:  36,950 km./hr.
    Place:Name:Team:Time:Km/h:
FRAThomas VoecklerFRABbox Bouygues Telecom04:44:51  +  00:00:00=39,389 
ITAAlessandro BallanUSABMC Racing Team04:46:11  +  00:01:20=39,206 
ESPAitor PerezESPFooton-Servetto04:46:11  +  00:01:20=39,206 
4 FRALloyd MondoryFRAAg2r La Mondiale04:47:41  +  00:02:50=39,001 
5 AUSLuke RobertsDEUTeam Milram04:47:41  +  00:02:50=39,001 
6 ITAFrancesco RedaBELQuick Step04:47:41  +  00:02:50=39,001 
7 ESPAlberto ContadorKAZAstana Pro Team04:47:41  +  00:02:50=39,001 
8 ESPSamuel SanchezESPEuskaltel - Euskadi04:47:41  +  00:02:50=39,001 
9 RUSDenis MenchovNLDRabobank04:47:41  +  00:02:50=39,001 
10 DENBrian VandborgITALiquigas-Doimo04:47:41  +  00:02:50=39,001 
11 BELJohan VansummerenUSAGarmin-Transitions04:47:41  +  00:02:50=39,001 
12 LUXAndy SchleckDNKTeam Saxo Bank04:48:20  +  00:03:29=38,913 
13 BELJurgen Van Den BroeckBELOmega Pharma - Lotto04:48:20  +  00:03:29=38,913 
14 KAZAlexandre VinokourovKAZAstana Pro Team04:48:20  +  00:03:29=38,913 
15 NEDRobert GesinkNLDRabobank04:48:46  +  00:03:55=38,855 
16 CANRyder HesjedalUSAGarmin-Transitions04:48:46  +  00:03:55=38,855 
17 USALevi LeipheimerUSATeam Radio Shack04:48:46  +  00:03:55=38,855 
18 FRAJohn GadretFRAAg2r La Mondiale04:48:46  +  00:03:55=38,855 
19 CZERoman KreuzigerITALiquigas-Doimo04:48:59  +  00:04:08=38,826 
20 BELKevin De WeertBELQuick Step04:48:59  +  00:04:08=38,826 
21 ESPJoaquim RodriguezRUSTeam Katusha04:48:59  +  00:04:08=38,826 
22 GERAndréas KlödenUSATeam Radio Shack04:48:59  +  00:04:08=38,826 
23 USALance ArmstrongUSATeam Radio Shack04:48:59  +  00:04:08=38,826 
24 ESPCarlos SastreCHECervelo Test Team04:48:59  +  00:04:08=38,826 
25 RUSSerguei IvanovRUSTeam Katusha04:49:05  +  00:04:14=38,812 
26 ESPRubén PlazaESPCaisse d´Epargne04:50:09  +  00:05:18=38,670 
27 FRAChristophe MoreauESPCaisse d´Epargne04:50:35  +  00:05:44=38,612 
28 ESPDaniel MorenoBELOmega Pharma - Lotto04:50:35  +  00:05:44=38,612 
29 ESPJuan Manuel GarateNLDRabobank04:50:35  +  00:05:44=38,612 
30 ESPLuis León SánchezESPCaisse d´Epargne04:50:35  +  00:05:44=38,612 
31 JPNChristopher HornerUSATeam Radio Shack04:50:35  +  00:05:44=38,612 
32 ITAIvan BassoITALiquigas-Doimo04:50:35  +  00:05:44=38,612 
33 AUSMatthew LloydBELOmega Pharma - Lotto04:50:35  +  00:05:44=38,612 
34 FRASylvain ChavanelBELQuick Step04:50:35  +  00:05:44=38,612 
35 SWEThomas LövkvistGBRSky Procycling04:50:35  +  00:05:44=38,612 
36 AUSCadel EvansUSABMC Racing Team04:51:49  +  00:06:58=38,449 
37 FRANicolas RocheFRAAg2r La Mondiale04:52:45  +  00:07:54=38,326 
38 FRAChristophe Le MevelFRAFrancaise Des Jeux04:53:28  +  00:08:37=38,233 
39 BELMaxime MonfortUSATeam Columbia-HTC04:53:28  +  00:08:37=38,233 
40 FRAJulien El FarèsFRACofidis Le Credit En Ligne04:53:28  +  00:08:37=38,233 
41 FRARémi PauriolFRACofidis Le Credit En Ligne04:53:28  +  00:08:37=38,233 
42 AUSMichael RogersUSATeam Columbia-HTC04:53:28  +  00:08:37=38,233 
43 UKRVolodymir GustovCHECervelo Test Team04:53:28  +  00:08:37=38,233 
44 SUISteve MorabitoUSABMC Racing Team04:53:28  +  00:08:37=38,233 
45 ESPIvan VelascoESPEuskaltel - Euskadi04:53:28  +  00:08:37=38,233 
46 BELMario AertsBELOmega Pharma - Lotto04:53:28  +  00:08:37=38,233 
47 ESPDaniel NavarroKAZAstana Pro Team04:53:28  +  00:08:37=38,233 
48 BELBradley WigginsGBRSky Procycling04:54:28  +  00:09:37=38,103 
49 ESPIñaki Isasi FloresESPEuskaltel - Euskadi04:54:28  +  00:09:37=38,103 
50 PORSergio PaulinhoUSATeam Radio Shack04:54:28  +  00:09:37=38,103 
51 FRASébastien TurgotFRABbox Bouygues Telecom04:54:28  +  00:09:37=38,103 
52 RUSEduard VorganovRUSTeam Katusha04:56:52  +  00:12:01=37,795 
53 ITAPaolo TiralongoKAZAstana Pro Team04:57:32  +  00:12:41=37,710 
54 DENChris Anker SørensenDNKTeam Saxo Bank04:57:55  +  00:13:04=37,662 
55 MDAAlexandr PliuschinRUSTeam Katusha04:57:59  +  00:13:08=37,653 
56 USAGeorge HincapieUSABMC Racing Team04:58:03  +  00:13:12=37,645 
57 FRARémy Di GrégorioFRAFrancaise Des Jeux04:58:03  +  00:13:12=37,645 
58 GERGrischa NiermannNLDRabobank04:58:03  +  00:13:12=37,645 
59 ITADamiano CunegoITALampre-Farnese Vini04:58:03  +  00:13:12=37,645 
60 ESPJesus  HernandezKAZAstana Pro Team04:58:03  +  00:13:12=37,645 
61 ITAFrancesco GavazziITALampre-Farnese Vini05:00:11  +  00:15:20=37,377 
62 FRAAnthony RouxFRAFrancaise Des Jeux05:00:35  +  00:15:44=37,327 
63 FRASandy CasarFRAFrancaise Des Jeux05:02:00  +  00:17:09=37,152 
64 FRAMatthieu LadagnousFRAFrancaise Des Jeux05:02:00  +  00:17:09=37,152 
65 ESPJosé Joaquin RojasESPCaisse d´Epargne05:02:00  +  00:17:09=37,152 
66 CANMichael BarryGBRSky Procycling05:02:00  +  00:17:09=37,152 
67 RUSAlexandr KolobnevRUSTeam Katusha05:02:00  +  00:17:09=37,152 
68 POLSylvester SzmydITALiquigas-Doimo05:02:00  +  00:17:09=37,152 
69 BLRKanstantin SivtsovUSATeam Columbia-HTC05:02:00  +  00:17:09=37,152 
70 BLRVasil KiryienkaESPCaisse d´Epargne05:02:00  +  00:17:09=37,152 
71 ESPBenjamin NovalKAZAstana Pro Team05:02:00  +  00:17:09=37,152 
72 SUIJakob FuglsangDNKTeam Saxo Bank05:02:00  +  00:17:09=37,152 
73 ESPDavid De La FuenteKAZAstana Pro Team05:02:00  +  00:17:09=37,152 
74 BELFrancis De GreefBELOmega Pharma - Lotto05:02:00  +  00:17:09=37,152 
75 FRAMaxime BouetFRAAg2r La Mondiale05:02:00  +  00:17:09=37,152 
76 AUTThomas RohreggerDEUTeam Milram05:02:00  +  00:17:09=37,152 
77 GERSebastian LangBELOmega Pharma - Lotto05:02:00  +  00:17:09=37,152 
78 SLOGrega BoleITALampre-Farnese Vini05:02:00  +  00:17:09=37,152 
79 SLOJanez BrajkovicUSATeam Radio Shack05:02:00  +  00:17:09=37,152 
80 FRAAnthony CharteauFRABbox Bouygues Telecom05:02:00  +  00:17:09=37,152 
81 NEDKoos MoerenhoutNLDRabobank05:02:00  +  00:17:09=37,152 
82 FRACyril GautierFRABbox Bouygues Telecom05:02:00  +  00:17:09=37,152 
83 NEDLars BoomNLDRabobank05:02:00  +  00:17:09=37,152 
84 FRADimitri ChampionFRAAg2r La Mondiale05:02:00  +  00:17:09=37,152 
85 ESPArkaitz DuranESPFooton-Servetto05:02:00  +  00:17:09=37,152 
86 BELJurgen Van De WalleBELQuick Step05:04:30  +  00:19:39=36,847 
87 BELJürgen RoelandtsBELOmega Pharma - Lotto05:04:30  +  00:19:39=36,847 
88 BELMaarten WynantsBELQuick Step05:04:30  +  00:19:39=36,847 
89 NEDMaarten TjallingiiNLDRabobank05:08:52  +  00:24:01=36,326 
90 FRAJérôme PineauBELQuick Step05:08:52  +  00:24:01=36,326 
91 GERJohannes FröhlingerDEUTeam Milram05:08:52  +  00:24:01=36,326 
92 FRAChristophe RiblonFRAAg2r La Mondiale05:08:52  +  00:24:01=36,326 
93 GERChristian KneesDEUTeam Milram05:08:52  +  00:24:01=36,326 
94 FRASébastien MinardFRACofidis Le Credit En Ligne05:08:52  +  00:24:01=36,326 
95 FRAPierrick FédrigoFRABbox Bouygues Telecom05:08:52  +  00:24:01=36,326 
96 FRAPierre RollandFRABbox Bouygues Telecom05:08:52  +  00:24:01=36,326 
97 ESPEgoi MartínezESPEuskaltel - Euskadi05:08:52  +  00:24:01=36,326 
98 DENNicki SørensenDNKTeam Saxo Bank05:08:52  +  00:24:01=36,326 
99 BELDries DevenynsBELQuick Step05:08:52  +  00:24:01=36,326 
100 FRAMatthieu SprickFRABbox Bouygues Telecom05:08:52  +  00:24:01=36,326 
101 ESPJosé Ivan GutierrezESPCaisse d´Epargne05:10:55  +  00:26:04=36,087 
102 ESPImanol ErvitiESPCaisse d´Epargne05:10:55  +  00:26:04=36,087 
103 FRAMathieu PergetESPCaisse d´Epargne05:10:55  +  00:26:04=36,087 
104 WALGeraint ThomasGBRSky Procycling05:10:55  +  00:26:04=36,087 
105 ITAEros CapecchiESPFooton-Servetto05:10:55  +  00:26:04=36,087 
106 ITAMauro Da DaltoITALampre-Farnese Vini05:10:55  +  00:26:04=36,087 
107 RUSPavel BruttRUSTeam Katusha05:10:55  +  00:26:04=36,087 
108 ESPRafael Valls FerriESPFooton-Servetto05:10:55  +  00:26:04=36,087 
109 ESPGorka VerdugoESPEuskaltel - Euskadi05:10:55  +  00:26:04=36,087 
110 ESPCarlos BarredoBELQuick Step05:10:55  +  00:26:04=36,087 
111 BELKevin SeeldraeyersBELQuick Step05:10:55  +  00:26:04=36,087 
112 AUSRobbie McEwenRUSTeam Katusha05:13:31  +  00:28:40=35,788 
113 IOMMark CavendishUSATeam Columbia-HTC05:13:40  +  00:28:49=35,770 
114 ITAMirco LorenzettoITALampre-Farnese Vini05:13:40  +  00:28:49=35,770 
115 ITAAlessandro PetacchiITALampre-Farnese Vini05:13:40  +  00:28:49=35,770 
116 DENMatti BreschelDNKTeam Saxo Bank05:13:40  +  00:28:49=35,770 
117 UKRAndriy GrivkoKAZAstana Pro Team05:13:40  +  00:28:49=35,770 
118 GERGerald CiolekDEUTeam Milram05:13:40  +  00:28:49=35,770 
119 AUTBernhard EiselUSATeam Columbia-HTC05:13:40  +  00:28:49=35,770 
120 GERBert GrabschUSATeam Columbia-HTC05:13:40  +  00:28:49=35,770 
121 UKRYaroslav PopovychUSATeam Radio Shack05:13:40  +  00:28:49=35,770 
122 GERDanilo HondoITALampre-Farnese Vini05:13:40  +  00:28:49=35,770 
123 KAZDmitriy MuravyevUSATeam Radio Shack05:13:40  +  00:28:49=35,770 
124 SUIGregory RastUSATeam Radio Shack05:13:40  +  00:28:49=35,770 
125 SUIMartin ElmigerFRAAg2r La Mondiale05:13:40  +  00:28:49=35,770 
126 ARGJuan Antonio FlechaGBRSky Procycling05:13:40  +  00:28:49=35,770 
127 NEDKarsten KroonUSABMC Racing Team05:13:40  +  00:28:49=35,770 
128 NZLJulian DeanUSAGarmin-Transitions05:13:40  +  00:28:49=35,770 
129 SLOSimon SpilakITALampre-Farnese Vini05:13:40  +  00:28:49=35,770 
130 ITAManuel QuinziatoITALiquigas-Doimo05:13:40  +  00:28:49=35,770 
131 SLOKristjan KorenITALiquigas-Doimo05:13:40  +  00:28:49=35,770 
132 GERTony MartinUSATeam Columbia-HTC05:13:40  +  00:28:49=35,770 
133 ITAFrancesco BellottiITALiquigas-Doimo05:13:40  +  00:28:49=35,770 
134 GERLinus GerdemannDEUTeam Milram05:13:40  +  00:28:49=35,770 
135 ITADaniel OssITALiquigas-Doimo05:13:40  +  00:28:49=35,770 
136 BLRAliaksandr KuchynskiITALiquigas-Doimo05:13:40  +  00:28:49=35,770 
137 ESPOscar FreireNLDRabobank05:13:40  +  00:28:49=35,770 
138 ESPAlan PerezESPEuskaltel - Euskadi05:13:40  +  00:28:49=35,770 
139 ESPJosé BenitezESPFooton-Servetto05:13:40  +  00:28:49=35,770 
140 ESPRuben PerezESPEuskaltel - Euskadi05:13:40  +  00:28:49=35,770 
141 ENGStephen CummingsGBRSky Procycling05:13:40  +  00:28:49=35,770 
142 JPNYukiya ArashiroFRABbox Bouygues Telecom05:13:40  +  00:28:49=35,770 
143 ITAAdriano MaloriITALampre-Farnese Vini05:13:40  +  00:28:49=35,770 
144 FRANicolas VogondyFRABbox Bouygues Telecom05:13:40  +  00:28:49=35,770 
145 ENGDaniel LloydCHECervelo Test Team05:13:40  +  00:28:49=35,770 
146 BELSerge PauwelsGBRSky Procycling05:13:40  +  00:28:49=35,770 
147 USABrent BookwalterUSABMC Racing Team05:13:40  +  00:28:49=35,770 
148 GERFabian WegmannDEUTeam Milram05:13:40  +  00:28:49=35,770 
149 AUSBrett LancasterCHECervelo Test Team05:13:40  +  00:28:49=35,770 
150 AUSStuart O'GradyDNKTeam Saxo Bank05:13:40  +  00:28:49=35,770 
151 MLTDavid MillarUSAGarmin-Transitions05:13:40  +  00:28:49=35,770 
152 NEDMartijn MaaskantUSAGarmin-Transitions05:13:40  +  00:28:49=35,770 
153 PORRui CostaESPCaisse d´Epargne05:13:40  +  00:28:49=35,770 
154 USADavid ZabriskieUSAGarmin-Transitions05:13:40  +  00:28:49=35,770 
155 AUSWesley SulzbergerFRAFrancaise Des Jeux05:13:40  +  00:28:49=35,770 
156 FRAAmaël MoinardFRACofidis Le Credit En Ligne05:13:40  +  00:28:49=35,770 
157 NEDBram TankinkNLDRabobank05:13:40  +  00:28:49=35,770 
158 NOREdvald Boasson HagenGBRSky Procycling05:13:40  +  00:28:49=35,770 
159 GERJens VoigtDNKTeam Saxo Bank05:13:40  +  00:28:49=35,770 
160 NORThor HushovdCHECervelo Test Team05:13:40  +  00:28:49=35,770 
161 FRAAnthony GeslinFRAFrancaise Des Jeux05:13:40  +  00:28:49=35,770 
162 FRAStéphane AugeFRACofidis Le Credit En Ligne05:13:40  +  00:28:49=35,770 
163 GERMarcus BurghardtUSABMC Racing Team05:13:40  +  00:28:49=35,770 
164 FRADamien MonierFRACofidis Le Credit En Ligne05:13:40  +  00:28:49=35,770 
165 ITARinaldo NocentiniFRAAg2r La Mondiale05:13:40  +  00:28:49=35,770 
166 FRABenoit VaugrenardFRAFrancaise Des Jeux05:13:40  +  00:28:49=35,770 
167 KAZMaxim IglinskiyKAZAstana Pro Team05:13:40  +  00:28:49=35,770 
168 GERAndreas KlierCHECervelo Test Team05:13:40  +  00:28:49=35,770 
169 URSIgnatas KonovalovasCHECervelo Test Team05:13:40  +  00:28:49=35,770 
170 CANJeremy HuntCHECervelo Test Team05:13:40  +  00:28:49=35,770 
171 SUIFabian CancellaraDNKTeam Saxo Bank05:13:40  +  00:28:49=35,770 
172 FRAJérémy RoyFRAFrancaise Des Jeux05:13:40  +  00:28:49=35,770 
173 FRAChristophe KernFRACofidis Le Credit En Ligne05:14:48  +  00:29:57=35,642 
174 ESPIban MayozESPFooton-Servetto05:15:28  +  00:30:37=35,566 

Withdrawls: 1
 
Rider
Team
Reason
129  ITAMauro SantambrogioUSABMC Racing TeamDid not finish

Todays birthdays.

1887  Marcel Godivier
1895  Louis Thuayre
1896  Léon Devos
1932  Aniceto Utset
1935  Willy Altig
1939  Sebastián Elorza
1941  René Binggeli
1948  Gerard Moneyron
1953  Patrocinio Jiménez
1954  Pierre Bazzo
1955  Serge Beucherie
1967  Antonio Politano
1969  Sergio Barbero
1977  Luca Paolini
1980  Gregory Rast
1981  Christophe Riblon
1985  Sebastian Langeveld
1990  Johan Esteban Chaves




Visits: